Farmington, NM

10:22 AM MST on February 23, 2017 (GMT -0700)
Four Corners Regional

Weather History for KFMN - March, 2013

Change the Weather History Date:

Wednesday, March 27, 2013

  Actual Average Record
Temperature  
Mean Temperature 48 °F -  
Max Temperature 69 °F 61 °F 73 °F (1988)
Min Temperature 28 °F 31 °F 19 °F (2016)
Degree Days  
Heating Degree Days 16    
Moisture  
Dew Point 11 °F    
Average Humidity 22    
Maximum Humidity 51    
Minimum Humidity 4    
Precipitation  
Precipitation 0.00 in - - ()
Sea Level Pressure  
Sea Level Pressure 29.97 in    
Wind  
Wind Speed 6 mph (NNE)    
Max Wind Speed 17 mph    
Max Gust Speed 25 mph    
Visibility 10 miles    
Events      
Averages and records for this station are not official NWS values.
T = Trace of Precipitation, MM = Missing Value Source: NWS Daily Summary

Daily Weather History Graph

Daily Weather History Graph

Search for Another Location

Airport or City:

Trip Planner

Search our weather history database for the weather conditions in past years. The results will help you decide how hot, cold, wet, or windy it might be!

Date:

Astronomy

Mar. 27, 2013 Rise Set
Actual Time 7:05 AM MDT 7:31 PM MDT
Civil Twilight 6:39 AM MDT 7:57 PM MDT
Nautical Twilight 6:09 AM MDT 8:27 PM MDT
Astronomical Twilight 5:38 AM MDT 8:58 PM MDT
Moon 8:16 PM MDT (3/27) 6:59 AM MDT (3/27)
Length of Visible Light 13h 17m
Length of Day
12h 25m
Full, 100% of the Moon is Illuminated
Mar 27
Full
Apr 2
Last Quarter
Apr 10
New
Apr 18
First Quarter
Apr 25
Full

Hourly Weather History & Observations

Time (MDT) Temp. Windchill Dew Point Humidity Pressure Visibility Wind Dir Wind Speed Gust Speed Precip Events Conditions
12:53 AM 39.0 °F 36.8 °F 12.9 °F 34% 29.94 in 10.0 mi NNE 3.5 mph - N/A   Partly Cloudy
1:53 AM 39.0 °F 35.7 °F 14.0 °F 36% 29.94 in 10.0 mi NNE 4.6 mph - N/A   Partly Cloudy
2:53 AM 37.0 °F 34.5 °F 12.9 °F 37% 29.94 in 10.0 mi NE 3.5 mph - N/A   Scattered Clouds
3:53 AM 35.1 °F 29.3 °F 14.0 °F 42% 29.94 in 10.0 mi NNE 6.9 mph - N/A   Clear
4:53 AM 34.0 °F 28.8 °F 14.0 °F 44% 29.96 in 10.0 mi East 5.8 mph - N/A   Clear
5:53 AM 32.0 °F 26.4 °F 15.1 °F 50% 29.98 in 10.0 mi East 5.8 mph - N/A   Clear
6:53 AM 28.9 °F 21.9 °F 12.9 °F 51% 30.01 in 10.0 mi NE 6.9 mph - N/A   Clear
7:53 AM 35.1 °F 28.6 °F 17.1 °F 48% 30.04 in 10.0 mi East 8.1 mph - N/A   Clear
8:53 AM 39.9 °F 33.9 °F 17.1 °F 40% 30.05 in 10.0 mi ESE 9.2 mph - N/A   Clear
9:53 AM 48.9 °F - 17.1 °F 28% 30.03 in 10.0 mi East 6.9 mph - N/A   Clear
10:53 AM 55.9 °F - 16.0 °F 21% 30.01 in 10.0 mi Variable 5.8 mph - N/A   Clear
11:53 AM 61.0 °F - 16.0 °F 17% 30.00 in 10.0 mi ENE 3.5 mph - N/A   Clear
12:53 PM 64.0 °F - 10.0 °F 12% 29.97 in 10.0 mi West 9.2 mph - N/A   Clear
1:53 PM 66.9 °F - 9.0 °F 10% 29.94 in 10.0 mi West 17.3 mph 25.3 mph N/A   Clear
2:53 PM 66.0 °F - 9.0 °F 11% 29.94 in 10.0 mi Variable 5.8 mph - N/A   Clear
3:53 PM 68.0 °F - 8.1 °F 10% 29.92 in 10.0 mi West 6.9 mph 19.6 mph N/A   Clear
4:53 PM 66.9 °F - 6.1 °F 9% 29.91 in 10.0 mi West 10.4 mph - N/A   Clear
5:53 PM 64.9 °F - 6.1 °F 10% 29.93 in 10.0 mi WSW 11.5 mph 16.1 mph N/A   Clear
6:53 PM 63.0 °F - 7.0 °F 11% 29.96 in 10.0 mi West 11.5 mph - N/A   Clear
7:53 PM 57.9 °F - 5.0 °F 12% 29.97 in 10.0 mi WSW 8.1 mph - N/A   Clear
8:53 PM 55.9 °F - 3.9 °F 12% 29.98 in 10.0 mi SW 8.1 mph - N/A   Clear
9:53 PM 55.0 °F - 3.9 °F 13% 29.97 in 10.0 mi Calm Calm - N/A   Clear
10:53 PM 48.9 °F - 7.0 °F 18% 29.98 in 10.0 mi NE 4.6 mph - N/A   Clear
11:53 PM 46.9 °F - 8.1 °F 21% 29.98 in 10.0 mi NNE 5.8 mph - N/A   Clear